site,time,unit,value
Pantyffynnon,2024-03-27T00:05:00+00:00,MW,-6.428
Pantyffynnon,2024-03-27T00:10:00+00:00,MW,-6.509
Pantyffynnon,2024-03-27T00:15:00+00:00,MW,-6.721
Pantyffynnon,2024-03-27T00:20:00+00:00,MW,-6.698
Pantyffynnon,2024-03-27T00:25:00+00:00,MW,-6.715
Pantyffynnon,2024-03-27T00:30:00+00:00,MW,-6.681
Pantyffynnon,2024-03-27T00:35:00+00:00,MW,-6.8469999999999995
Pantyffynnon,2024-03-27T00:40:00+00:00,MW,-6.971
Pantyffynnon,2024-03-27T00:45:00+00:00,MW,-7.038
Pantyffynnon,2024-03-27T00:50:00+00:00,MW,-6.897
Pantyffynnon,2024-03-27T00:55:00+00:00,MW,-6.708
Pantyffynnon,2024-03-27T01:00:00+00:00,MW,-6.7
Pantyffynnon,2024-03-27T01:05:00+00:00,MW,-6.9079999999999995
Pantyffynnon,2024-03-27T01:10:00+00:00,MW,-6.859999999999999
Pantyffynnon,2024-03-27T01:15:00+00:00,MW,-6.833
Pantyffynnon,2024-03-27T01:20:00+00:00,MW,-6.74
Pantyffynnon,2024-03-27T01:25:00+00:00,MW,-6.804
Pantyffynnon,2024-03-27T01:30:00+00:00,MW,-6.837
Pantyffynnon,2024-03-27T01:35:00+00:00,MW,-6.8149999999999995
Pantyffynnon,2024-03-27T01:40:00+00:00,MW,-6.814
Pantyffynnon,2024-03-27T01:45:00+00:00,MW,-6.769
Pantyffynnon,2024-03-27T01:50:00+00:00,MW,-6.720000000000001
Pantyffynnon,2024-03-27T01:55:00+00:00,MW,-6.866
Pantyffynnon,2024-03-27T02:00:00+00:00,MW,-6.785
Pantyffynnon,2024-03-27T02:05:00+00:00,MW,-6.630000000000001
Pantyffynnon,2024-03-27T02:10:00+00:00,MW,-6.529999999999999
Pantyffynnon,2024-03-27T02:15:00+00:00,MW,-6.528
Pantyffynnon,2024-03-27T02:20:00+00:00,MW,-6.474
Pantyffynnon,2024-03-27T02:25:00+00:00,MW,-6.521
Pantyffynnon,2024-03-27T02:30:00+00:00,MW,-6.468
Pantyffynnon,2024-03-27T02:35:00+00:00,MW,-6.3
Pantyffynnon,2024-03-27T02:40:00+00:00,MW,-6.275
Pantyffynnon,2024-03-27T02:45:00+00:00,MW,-6.273
Pantyffynnon,2024-03-27T02:50:00+00:00,MW,-6.194
Pantyffynnon,2024-03-27T02:55:00+00:00,MW,-6.17
Pantyffynnon,2024-03-27T03:00:00+00:00,MW,-6.398
Pantyffynnon,2024-03-27T03:05:00+00:00,MW,-6.4350000000000005
Pantyffynnon,2024-03-27T03:10:00+00:00,MW,-6.37
Pantyffynnon,2024-03-27T03:15:00+00:00,MW,-6.385
Pantyffynnon,2024-03-27T03:20:00+00:00,MW,-6.378
Pantyffynnon,2024-03-27T03:25:00+00:00,MW,-6.32
Pantyffynnon,2024-03-27T03:30:00+00:00,MW,-6.340999999999999
Pantyffynnon,2024-03-27T03:35:00+00:00,MW,-6.261
Pantyffynnon,2024-03-27T03:40:00+00:00,MW,-6.055
Pantyffynnon,2024-03-27T03:45:00+00:00,MW,-6.031000000000001
Pantyffynnon,2024-03-27T03:50:00+00:00,MW,-5.958
Pantyffynnon,2024-03-27T03:55:00+00:00,MW,-5.891
Pantyffynnon,2024-03-27T04:00:00+00:00,MW,-5.866
Pantyffynnon,2024-03-27T04:05:00+00:00,MW,-6.037
Pantyffynnon,2024-03-27T04:10:00+00:00,MW,-6.187
Pantyffynnon,2024-03-27T04:15:00+00:00,MW,-6.213
Pantyffynnon,2024-03-27T04:20:00+00:00,MW,-6.189
Pantyffynnon,2024-03-27T04:25:00+00:00,MW,-6.208
Pantyffynnon,2024-03-27T04:30:00+00:00,MW,-6.2
Pantyffynnon,2024-03-27T04:35:00+00:00,MW,-6.179
Pantyffynnon,2024-03-27T04:40:00+00:00,MW,-6.161
Pantyffynnon,2024-03-27T04:45:00+00:00,MW,-6.123
Pantyffynnon,2024-03-27T04:50:00+00:00,MW,-6.052
Pantyffynnon,2024-03-27T04:55:00+00:00,MW,-6.068
Pantyffynnon,2024-03-27T05:00:00+00:00,MW,-6.145
Pantyffynnon,2024-03-27T05:05:00+00:00,MW,-6.1690000000000005
Pantyffynnon,2024-03-27T05:10:00+00:00,MW,-6.003
Pantyffynnon,2024-03-27T05:15:00+00:00,MW,-6.199
Pantyffynnon,2024-03-27T05:20:00+00:00,MW,-6.226
Pantyffynnon,2024-03-27T05:25:00+00:00,MW,-6.063000000000001
Pantyffynnon,2024-03-27T05:30:00+00:00,MW,-6.0920000000000005
Pantyffynnon,2024-03-27T05:35:00+00:00,MW,-6.2379999999999995
Pantyffynnon,2024-03-27T05:40:00+00:00,MW,-6.35
Pantyffynnon,2024-03-27T05:45:00+00:00,MW,-6.571
Pantyffynnon,2024-03-27T05:50:00+00:00,MW,-6.6419999999999995
Pantyffynnon,2024-03-27T05:55:00+00:00,MW,-6.816
Pantyffynnon,2024-03-27T06:00:00+00:00,MW,-7.035
Pantyffynnon,2024-03-27T06:05:00+00:00,MW,-7.063
Pantyffynnon,2024-03-27T06:10:00+00:00,MW,-7.357
Pantyffynnon,2024-03-27T06:15:00+00:00,MW,-7.474
Pantyffynnon,2024-03-27T06:20:00+00:00,MW,-7.57
Pantyffynnon,2024-03-27T06:25:00+00:00,MW,-7.889
Pantyffynnon,2024-03-27T06:30:00+00:00,MW,-7.9
Pantyffynnon,2024-03-27T06:35:00+00:00,MW,-7.898
Pantyffynnon,2024-03-27T06:40:00+00:00,MW,-8.1
Pantyffynnon,2024-03-27T06:45:00+00:00,MW,-8.122
Pantyffynnon,2024-03-27T06:50:00+00:00,MW,-8.332
Pantyffynnon,2024-03-27T06:55:00+00:00,MW,-8.456
Pantyffynnon,2024-03-27T07:00:00+00:00,MW,-8.57
Pantyffynnon,2024-03-27T07:05:00+00:00,MW,-8.768
Pantyffynnon,2024-03-27T07:10:00+00:00,MW,-9.152999999999999
Pantyffynnon,2024-03-27T07:15:00+00:00,MW,-9.211
Pantyffynnon,2024-03-27T07:20:00+00:00,MW,-8.931000000000001
Pantyffynnon,2024-03-27T07:25:00+00:00,MW,-9.106
Pantyffynnon,2024-03-27T07:30:00+00:00,MW,-9.036999999999999
Pantyffynnon,2024-03-27T07:35:00+00:00,MW,-8.868
Pantyffynnon,2024-03-27T07:40:00+00:00,MW,-9.053999999999998
Pantyffynnon,2024-03-27T07:45:00+00:00,MW,-9.112
Pantyffynnon,2024-03-27T07:50:00+00:00,MW,-9.135
Pantyffynnon,2024-03-27T07:55:00+00:00,MW,-9.286999999999999
Pantyffynnon,2024-03-27T08:00:00+00:00,MW,-9.466000000000001
Pantyffynnon,2024-03-27T08:05:00+00:00,MW,-9.452
Pantyffynnon,2024-03-27T08:10:00+00:00,MW,-9.686
Pantyffynnon,2024-03-27T08:15:00+00:00,MW,-9.786
Pantyffynnon,2024-03-27T08:20:00+00:00,MW,-9.841999999999999
Pantyffynnon,2024-03-27T08:25:00+00:00,MW,-9.914
Pantyffynnon,2024-03-27T08:30:00+00:00,MW,-10.117
Pantyffynnon,2024-03-27T08:35:00+00:00,MW,-10.127
Pantyffynnon,2024-03-27T08:40:00+00:00,MW,-10.327
Pantyffynnon,2024-03-27T08:45:00+00:00,MW,-10.356
Pantyffynnon,2024-03-27T08:50:00+00:00,MW,-10.137
Pantyffynnon,2024-03-27T08:55:00+00:00,MW,-10.064
Pantyffynnon,2024-03-27T09:00:00+00:00,MW,-10.045
Pantyffynnon,2024-03-27T09:05:00+00:00,MW,-10.105
Pantyffynnon,2024-03-27T09:10:00+00:00,MW,-10.177
Pantyffynnon,2024-03-27T09:15:00+00:00,MW,-10.145
Pantyffynnon,2024-03-27T09:20:00+00:00,MW,-10.277000000000001
Pantyffynnon,2024-03-27T09:25:00+00:00,MW,-10.551
Pantyffynnon,2024-03-27T09:30:00+00:00,MW,-10.498
Pantyffynnon,2024-03-27T09:35:00+00:00,MW,-10.553
Pantyffynnon,2024-03-27T09:40:00+00:00,MW,-10.379
Pantyffynnon,2024-03-27T09:45:00+00:00,MW,-10.53
Pantyffynnon,2024-03-27T09:50:00+00:00,MW,-10.481
Pantyffynnon,2024-03-27T09:55:00+00:00,MW,-10.088000000000001
Pantyffynnon,2024-03-27T10:00:00+00:00,MW,-10.003
Pantyffynnon,2024-03-27T10:05:00+00:00,MW,-9.460999999999999
Pantyffynnon,2024-03-27T10:10:00+00:00,MW,-9.802
Pantyffynnon,2024-03-27T10:15:00+00:00,MW,-9.954
Pantyffynnon,2024-03-27T10:20:00+00:00,MW,-10.01
Pantyffynnon,2024-03-27T10:25:00+00:00,MW,-9.871
Pantyffynnon,2024-03-27T10:30:00+00:00,MW,-9.576
Pantyffynnon,2024-03-27T10:35:00+00:00,MW,-9.387
Pantyffynnon,2024-03-27T10:40:00+00:00,MW,-9.692
Pantyffynnon,2024-03-27T10:45:00+00:00,MW,-10.081
Pantyffynnon,2024-03-27T10:50:00+00:00,MW,-10.597
Pantyffynnon,2024-03-27T10:55:00+00:00,MW,-10.608
Pantyffynnon,2024-03-27T11:00:00+00:00,MW,-10.486
Pantyffynnon,2024-03-27T11:05:00+00:00,MW,-10.507000000000001
Pantyffynnon,2024-03-27T11:10:00+00:00,MW,-10.234
Pantyffynnon,2024-03-27T11:15:00+00:00,MW,-10.023
Pantyffynnon,2024-03-27T11:20:00+00:00,MW,-10.161000000000001
Pantyffynnon,2024-03-27T11:25:00+00:00,MW,-10.141
Pantyffynnon,2024-03-27T11:30:00+00:00,MW,-10.117
Pantyffynnon,2024-03-27T11:35:00+00:00,MW,-10.183
Pantyffynnon,2024-03-27T11:40:00+00:00,MW,-10.036
Pantyffynnon,2024-03-27T11:45:00+00:00,MW,-9.919
Pantyffynnon,2024-03-27T11:50:00+00:00,MW,-9.606
Pantyffynnon,2024-03-27T11:55:00+00:00,MW,-9.384
Pantyffynnon,2024-03-27T12:00:00+00:00,MW,-9.097000000000001
Pantyffynnon,2024-03-27T12:05:00+00:00,MW,-8.979
Pantyffynnon,2024-03-27T12:10:00+00:00,MW,-8.812000000000001
Pantyffynnon,2024-03-27T12:15:00+00:00,MW,-9.077
Pantyffynnon,2024-03-27T12:20:00+00:00,MW,-9.067
Pantyffynnon,2024-03-27T12:25:00+00:00,MW,-9.268
Pantyffynnon,2024-03-27T12:30:00+00:00,MW,-9.085
Pantyffynnon,2024-03-27T12:35:00+00:00,MW,-9.583
Pantyffynnon,2024-03-27T12:40:00+00:00,MW,-9.463999999999999
Pantyffynnon,2024-03-27T12:45:00+00:00,MW,-9.454
Pantyffynnon,2024-03-27T12:50:00+00:00,MW,-9.370999999999999
Pantyffynnon,2024-03-27T12:55:00+00:00,MW,-10.125
Pantyffynnon,2024-03-27T13:00:00+00:00,MW,-10.115
Pantyffynnon,2024-03-27T13:05:00+00:00,MW,-10.161999999999999
Pantyffynnon,2024-03-27T13:10:00+00:00,MW,-10.161000000000001
Pantyffynnon,2024-03-27T13:15:00+00:00,MW,-10.481
Pantyffynnon,2024-03-27T13:20:00+00:00,MW,-10.632000000000001
Pantyffynnon,2024-03-27T13:25:00+00:00,MW,-10.0
Pantyffynnon,2024-03-27T13:30:00+00:00,MW,-9.172
Pantyffynnon,2024-03-27T13:35:00+00:00,MW,-9.102
Pantyffynnon,2024-03-27T13:40:00+00:00,MW,-8.96
Pantyffynnon,2024-03-27T13:45:00+00:00,MW,-8.621
Pantyffynnon,2024-03-27T13:50:00+00:00,MW,-8.681000000000001
Pantyffynnon,2024-03-27T13:55:00+00:00,MW,-8.869
Pantyffynnon,2024-03-27T14:00:00+00:00,MW,-9.749
Pantyffynnon,2024-03-27T14:05:00+00:00,MW,-10.294
Pantyffynnon,2024-03-27T14:10:00+00:00,MW,-10.190999999999999
Pantyffynnon,2024-03-27T14:15:00+00:00,MW,-10.528
Pantyffynnon,2024-03-27T14:20:00+00:00,MW,-10.558
Pantyffynnon,2024-03-27T14:25:00+00:00,MW,-10.129
Pantyffynnon,2024-03-27T14:30:00+00:00,MW,-9.624
Pantyffynnon,2024-03-27T14:35:00+00:00,MW,-10.021
Pantyffynnon,2024-03-27T14:40:00+00:00,MW,-10.366
Pantyffynnon,2024-03-27T14:45:00+00:00,MW,-10.278
Pantyffynnon,2024-03-27T14:50:00+00:00,MW,-10.068999999999999
Pantyffynnon,2024-03-27T14:55:00+00:00,MW,-9.974
Pantyffynnon,2024-03-27T15:00:00+00:00,MW,-10.354
Pantyffynnon,2024-03-27T15:05:00+00:00,MW,-10.551
Pantyffynnon,2024-03-27T15:10:00+00:00,MW,-10.541
Pantyffynnon,2024-03-27T15:15:00+00:00,MW,-10.717
Pantyffynnon,2024-03-27T15:20:00+00:00,MW,-10.751
Pantyffynnon,2024-03-27T15:25:00+00:00,MW,-10.599
Pantyffynnon,2024-03-27T15:30:00+00:00,MW,-10.837
Pantyffynnon,2024-03-27T15:35:00+00:00,MW,-10.365
Pantyffynnon,2024-03-27T15:40:00+00:00,MW,-9.905999999999999
Pantyffynnon,2024-03-27T15:45:00+00:00,MW,-9.994
Pantyffynnon,2024-03-27T15:50:00+00:00,MW,-10.573
Pantyffynnon,2024-03-27T15:55:00+00:00,MW,-10.324
Pantyffynnon,2024-03-27T16:00:00+00:00,MW,-10.440999999999999
Pantyffynnon,2024-03-27T16:05:00+00:00,MW,-10.696000000000002
Pantyffynnon,2024-03-27T16:10:00+00:00,MW,-10.68
Pantyffynnon,2024-03-27T16:15:00+00:00,MW,-10.097
Pantyffynnon,2024-03-27T16:20:00+00:00,MW,-9.913
Pantyffynnon,2024-03-27T16:25:00+00:00,MW,-9.879
Pantyffynnon,2024-03-27T16:30:00+00:00,MW,-9.917
Pantyffynnon,2024-03-27T16:35:00+00:00,MW,-9.652999999999999
Pantyffynnon,2024-03-27T16:40:00+00:00,MW,-9.559999999999999
Pantyffynnon,2024-03-27T16:45:00+00:00,MW,-10.007000000000001
Pantyffynnon,2024-03-27T16:50:00+00:00,MW,-10.052
Pantyffynnon,2024-03-27T16:55:00+00:00,MW,-9.842
Pantyffynnon,2024-03-27T17:00:00+00:00,MW,-10.001000000000001
Pantyffynnon,2024-03-27T17:05:00+00:00,MW,-10.032
Pantyffynnon,2024-03-27T17:10:00+00:00,MW,-10.377
Pantyffynnon,2024-03-27T17:15:00+00:00,MW,-10.440000000000001
Pantyffynnon,2024-03-27T17:20:00+00:00,MW,-10.264
Pantyffynnon,2024-03-27T17:25:00+00:00,MW,-10.323
Pantyffynnon,2024-03-27T17:30:00+00:00,MW,-10.269
Pantyffynnon,2024-03-27T17:35:00+00:00,MW,-10.283999999999999
Pantyffynnon,2024-03-27T17:40:00+00:00,MW,-10.283
Pantyffynnon,2024-03-27T17:45:00+00:00,MW,-10.271
Pantyffynnon,2024-03-27T17:50:00+00:00,MW,-10.433
Pantyffynnon,2024-03-27T17:55:00+00:00,MW,-10.511
Pantyffynnon,2024-03-27T18:00:00+00:00,MW,-10.433
Pantyffynnon,2024-03-27T18:05:00+00:00,MW,-10.565
Pantyffynnon,2024-03-27T18:10:00+00:00,MW,-10.719999999999999
Pantyffynnon,2024-03-27T18:15:00+00:00,MW,-11.013000000000002
Pantyffynnon,2024-03-27T18:20:00+00:00,MW,-11.082
Pantyffynnon,2024-03-27T18:25:00+00:00,MW,-11.251
Pantyffynnon,2024-03-27T18:30:00+00:00,MW,-11.23
Pantyffynnon,2024-03-27T18:35:00+00:00,MW,-11.503
Pantyffynnon,2024-03-27T18:40:00+00:00,MW,-11.59
Pantyffynnon,2024-03-27T18:45:00+00:00,MW,-11.531
Pantyffynnon,2024-03-27T18:50:00+00:00,MW,-11.727
Pantyffynnon,2024-03-27T18:55:00+00:00,MW,-11.554
Pantyffynnon,2024-03-27T19:00:00+00:00,MW,-11.401
Pantyffynnon,2024-03-27T19:05:00+00:00,MW,-11.477
Pantyffynnon,2024-03-27T19:10:00+00:00,MW,-11.513
Pantyffynnon,2024-03-27T19:15:00+00:00,MW,-11.536999999999999
Pantyffynnon,2024-03-27T19:20:00+00:00,MW,-11.492
Pantyffynnon,2024-03-27T19:25:00+00:00,MW,-11.419
Pantyffynnon,2024-03-27T19:30:00+00:00,MW,-11.264
Pantyffynnon,2024-03-27T19:35:00+00:00,MW,-11.032
Pantyffynnon,2024-03-27T19:40:00+00:00,MW,-11.518999999999998
Pantyffynnon,2024-03-27T19:45:00+00:00,MW,-11.43
Pantyffynnon,2024-03-27T19:50:00+00:00,MW,-11.546
Pantyffynnon,2024-03-27T19:55:00+00:00,MW,-11.401
Pantyffynnon,2024-03-27T20:00:00+00:00,MW,-11.538
Pantyffynnon,2024-03-27T20:05:00+00:00,MW,-11.64
Pantyffynnon,2024-03-27T20:10:00+00:00,MW,-11.536
Pantyffynnon,2024-03-27T20:15:00+00:00,MW,-11.359
Pantyffynnon,2024-03-27T20:20:00+00:00,MW,-11.232
Pantyffynnon,2024-03-27T20:25:00+00:00,MW,-11.05
Pantyffynnon,2024-03-27T20:30:00+00:00,MW,-10.623000000000001
Pantyffynnon,2024-03-27T20:35:00+00:00,MW,-10.242
Pantyffynnon,2024-03-27T20:40:00+00:00,MW,-10.282
Pantyffynnon,2024-03-27T20:45:00+00:00,MW,-10.161000000000001
Pantyffynnon,2024-03-27T20:50:00+00:00,MW,-9.966000000000001
Pantyffynnon,2024-03-27T20:55:00+00:00,MW,-9.993
Pantyffynnon,2024-03-27T21:00:00+00:00,MW,-9.797
Pantyffynnon,2024-03-27T21:05:00+00:00,MW,-9.539
Pantyffynnon,2024-03-27T21:10:00+00:00,MW,-9.457
Pantyffynnon,2024-03-27T21:15:00+00:00,MW,-9.391
Pantyffynnon,2024-03-27T21:20:00+00:00,MW,-9.389
Pantyffynnon,2024-03-27T21:25:00+00:00,MW,-9.312999999999999
Pantyffynnon,2024-03-27T21:30:00+00:00,MW,-9.139
Pantyffynnon,2024-03-27T21:35:00+00:00,MW,-8.98
Pantyffynnon,2024-03-27T21:40:00+00:00,MW,-9.007
Pantyffynnon,2024-03-27T21:45:00+00:00,MW,-9.085
Pantyffynnon,2024-03-27T21:50:00+00:00,MW,-9.129999999999999
Pantyffynnon,2024-03-27T21:55:00+00:00,MW,-9.030000000000001
Pantyffynnon,2024-03-27T22:00:00+00:00,MW,-8.821
Pantyffynnon,2024-03-27T22:05:00+00:00,MW,-8.736
Pantyffynnon,2024-03-27T22:10:00+00:00,MW,-8.695
Pantyffynnon,2024-03-27T22:15:00+00:00,MW,-8.975000000000001
Pantyffynnon,2024-03-27T22:20:00+00:00,MW,-9.008
Pantyffynnon,2024-03-27T22:25:00+00:00,MW,-8.731
Pantyffynnon,2024-03-27T22:30:00+00:00,MW,-8.568000000000001
Pantyffynnon,2024-03-27T22:35:00+00:00,MW,-8.46
Pantyffynnon,2024-03-27T22:40:00+00:00,MW,-8.414000000000001
Pantyffynnon,2024-03-27T22:45:00+00:00,MW,-7.845000000000001
Pantyffynnon,2024-03-27T22:50:00+00:00,MW,-7.686
Pantyffynnon,2024-03-27T22:55:00+00:00,MW,-7.694
Pantyffynnon,2024-03-27T23:00:00+00:00,MW,-8.012
Pantyffynnon,2024-03-27T23:05:00+00:00,MW,-7.8
Pantyffynnon,2024-03-27T23:10:00+00:00,MW,-7.856
Pantyffynnon,2024-03-27T23:15:00+00:00,MW,-7.635
Pantyffynnon,2024-03-27T23:20:00+00:00,MW,-7.496
Pantyffynnon,2024-03-27T23:25:00+00:00,MW,-7.282
Pantyffynnon,2024-03-27T23:30:00+00:00,MW,-7.308
Pantyffynnon,2024-03-27T23:35:00+00:00,MW,-7.234
Pantyffynnon,2024-03-27T23:40:00+00:00,MW,-7.3
Pantyffynnon,2024-03-27T23:45:00+00:00,MW,-7.074
Pantyffynnon,2024-03-27T23:50:00+00:00,MW,-6.8740000000000006
Pantyffynnon,2024-03-27T23:55:00+00:00,MW,-6.891
Pantyffynnon,2024-03-28T00:00:00+00:00,MW,-6.949
